Flag for Switzerland Weather past 2 weeks in Langenthal, Bern, Switzerland

Now
62 °F

Cool.


Feels Like: 62 °F
Forecast: 56 / 66 °F
Wind: 1 mph from Southwest

Location: Wynau

Current Time: Jul 29, 2014 at 10:04:29 PM

Latest Report: Jul 29, 2014 at 9:00 PM


Visibility: N/A

Pressure: 29.82 "Hg

Humidity: 94%

Dew point: 60 °F

Location of LangenthalLocation

Historic Weather in Langenthal — Graph

°F

Langenthal temperature yesterday

Maximum temperature yesterday: 76 °F (at 3:00 PM)
Minimum temperature yesterday: 59 °F (at 5:00 AM)
Average temperature yesterday: 65 °F

Past Weeks' High & Low Weather Summary

 TemperatureHumidityPressure
High88 °F (Jul 18, 5:00 PM)100% (Jul 23, 1:00 AM)30.22 "Hg (Jul 23, 1:00 AM)
Low53 °F (Jul 16, 6:00 AM)27% (Jul 18, 7:00 PM)29.78 "Hg (Jul 28, 3:00 PM)
Average66 °F80%29.98 "Hg
* Reported Jul 14 8:00 PM — Jul 29 8:00 PM, Langenthal, Weather by CustomWeather, © 2014

Note: Actual official high and low records may vary slightly from our data, if they occured in-between our weather recording intervals... More about our weather records

Advertising

Langenthal weather history for previous 24 hours

 ConditionsComfort  
Time TempWeatherWind HumidityBarometerVisibility
8:00 PM
Jul 29
64 °FMild.2 mph93%29.81 "HgN/A
7:00 PM64 °FMild.1 mph92%29.80 "HgN/A
6:00 PM67 °FMild.2 mph77%29.79 "HgN/A
5:00 PM67 °FMild.2 mph73%29.79 "HgN/A
4:00 PM67 °FMild.2 mph80%29.79 "HgN/A
3:00 PM63 °FMild.5 mph86%29.82 "HgN/A
2:00 PM65 °FMild.1 mph81%29.81 "HgN/A
1:00 PM63 °FMild.2 mph88%29.82 "HgN/A
12:00 PM61 °FCool.1 mph96%29.83 "HgN/A
11:00 AM60 °FCool.1 mph94%29.83 "HgN/A
10:00 AM59 °FCool.1 mph94%29.84 "HgN/A
9:00 AM60 °FCool.1 mph96%29.83 "HgN/A
8:00 AM59 °FCool.No wind95%29.83 "HgN/A
7:00 AM59 °FCool.1 mph99%29.83 "HgN/A
6:00 AM59 °FCool.1 mph99%29.83 "HgN/A
5:00 AM59 °FCool.1 mph98%29.84 "HgN/A
4:00 AM59 °FCool.1 mph99%29.85 "HgN/A
3:00 AM59 °FCool.1 mph98%29.85 "HgN/A
2:00 AM59 °FCool.No wind99%29.87 "HgN/A
1:00 AM59 °FCool.1 mph99%29.88 "HgN/A
12:00 AM60 °FCool.1 mph99%29.90 "HgN/A
11:00 PM
Jul 28
60 °FCool.1 mph98%29.91 "HgN/A
10:00 PM60 °FCool.2 mph96%29.90 "HgN/A
Weather by CustomWeather, © 2014

See weather overviewHow to use our weather pages